• In Belarus
  • List of Countries
  • For 7 days
  • Water Temperature
  • Satellite Maps
  • Weather Map
  • Weather Widgets
  • user-avatar
    Login

    Hourly Weather Carmen

    Today, 19 September, Wednesday

    Time Temperature Precipitation Wind Pressure Humidity
    00:00 +29°C° 0 mm 4 mps 757 mmHg 84%
    01:00 +28°C° 0.2 mm 4 mps 757 mmHg 86%
    02:00 +28°C° 0.2 mm 4 mps 757 mmHg 88%
    03:00 +28°C° 0.2 mm 4 mps 757 mmHg 90%
    04:00 +28°C° 0.1 mm 3 mps 757 mmHg 91%
    05:00 +27°C° 0.1 mm 3 mps 757 mmHg 92%
    06:00 +27°C° 0.1 mm 3 mps 757 mmHg 93%
    07:00 +28°C° 0.1 mm 2 mps 758 mmHg 87%
    08:00 +30°C° 0.1 mm 2 mps 758 mmHg 81%
    09:00 +32°C° 0.1 mm 2 mps 759 mmHg 74%
    10:00 +35°C° 0.1 mm 2 mps 758 mmHg 65%
    11:00 +36°C° 0.1 mm 1 mps 758 mmHg 56%
    12:00 +39°C° 0.1 mm 1 mps 758 mmHg 47%
    13:00 +38°C° 0 mm 2 mps 757 mmHg 48%
    14:00 +38°C° 0 mm 2 mps 756 mmHg 48%
    15:00 +37°C° 0 mm 3 mps 756 mmHg 49%
    16:00 +35°C° 0 mm 3 mps 756 mmHg 56%
    17:00 +34°C° 0 mm 4 mps 756 mmHg 64%
    18:00 +32°C° 0 mm 4 mps 756 mmHg 72%
    19:00 +30°C° 0.3 mm 4 mps 756 mmHg 76%
    20:00 +29°C° 0.3 mm 4 mps 757 mmHg 80%
    21:00 +29°C° 0.3 mm 4 mps 757 mmHg 84%
    22:00 +28°C° 0.4 mm 3 mps 757 mmHg 85%
    23:00 +28°C° 0.4 mm 3 mps 757 mmHg 87%

    Tomorrow, 20 September, Thursday

    Time Temperature Precipitation Wind Pressure Humidity
    00:00 +28°C° 0.4 mm 2 mps 757 mmHg 88%
    01:00 +28°C° 0.5 mm 2 mps 757 mmHg 88%
    02:00 +28°C° 0.5 mm 2 mps 757 mmHg 89%
    03:00 +28°C° 0.5 mm 2 mps 757 mmHg 89%
    04:00 +27°C° 0.3 mm 2 mps 757 mmHg 90%
    05:00 +27°C° 0.3 mm 3 mps 757 mmHg 90%
    06:00 +27°C° 0.3 mm 3 mps 757 mmHg 91%
    07:00 +28°C° 0.5 mm 3 mps 758 mmHg 85%
    08:00 +30°C° 0.5 mm 3 mps 758 mmHg 79%
    09:00 +31°C° 0.5 mm 3 mps 759 mmHg 73%
    10:00 +34°C° 0.1 mm 3 mps 758 mmHg 66%
    11:00 +36°C° 0.1 mm 2 mps 758 mmHg 59%
    12:00 +36°C° 0.1 mm 1 mps 758 mmHg 53%
    13:00 +37°C° 0 mm 2 mps 757 mmHg 52%
    14:00 +37°C° 0 mm 2 mps 757 mmHg 52%
    15:00 +37°C° 0 mm 2 mps 756 mmHg 51%
    16:00 +35°C° 0.7 mm 3 mps 756 mmHg 61%
    17:00 +33°C° 0.7 mm 3 mps 756 mmHg 71%
    18:00 +30°C° 0.7 mm 3 mps 756 mmHg 81%
    19:00 +29°C° 1 mm 3 mps 757 mmHg 84%
    20:00 +29°C° 1 mm 3 mps 758 mmHg 87%
    21:00 +28°C° 1 mm 3 mps 758 mmHg 91%
    22:00 +28°C° 0.8 mm 4 mps 758 mmHg 91%
    23:00 +28°C° 0.8 mm 4 mps 759 mmHg 92%

    Day after tomorrow, 21 September, Friday

    Time Temperature Precipitation Wind Pressure Humidity
    00:00 +27°C° 0.8 mm 5 mps 759 mmHg 93%
    01:00 +27°C° 0 mm 5 mps 758 mmHg 93%
    02:00 +27°C° 0 mm 4 mps 758 mmHg 92%
    03:00 +27°C° 0 mm 4 mps 758 mmHg 92%
    04:00 +27°C° 0 mm 4 mps 758 mmHg 91%
    05:00 +27°C° 0 mm 5 mps 758 mmHg 89%
    06:00 +27°C° 0 mm 5 mps 758 mmHg 88%
    07:00 +29°C° 0 mm 5 mps 758 mmHg 83%
    08:00 +30°C° 0 mm 5 mps 759 mmHg 78%
    09:00 +32°C° 0 mm 5 mps 759 mmHg 73%
    10:00 +33°C° 0 mm 5 mps 759 mmHg 68%
    11:00 +34°C° 0 mm 4 mps 758 mmHg 64%
    12:00 +36°C° 0 mm 4 mps 758 mmHg 60%
    13:00 +36°C° 0 mm 3 mps 757 mmHg 58%
    14:00 +36°C° 0 mm 3 mps 756 mmHg 57%
    15:00 +37°C° 0 mm 3 mps 756 mmHg 55%
    16:00 +35°C° 0.4 mm 3 mps 756 mmHg 65%
    17:00 +33°C° 0.4 mm 3 mps 756 mmHg 74%
    18:00 +30°C° 0.4 mm 3 mps 756 mmHg 84%
    19:00 +29°C° 0.9 mm 3 mps 757 mmHg 85%
    20:00 +29°C° 0.9 mm 3 mps 758 mmHg 87%
    21:00 +28°C° 0.9 mm 3 mps 758 mmHg 88%
    22:00 +28°C° 0.2 mm 3 mps 758 mmHg 89%
    23:00 +28°C° 0.2 mm 4 mps 758 mmHg 89%

    22 September, Saturday

    Time Temperature Precipitation Wind Pressure Humidity
    00:00 +27°C° 0.2 mm 4 mps 758 mmHg 89%
    01:00 +27°C° 0 mm 4 mps 758 mmHg 89%
    02:00 +27°C° 0 mm 4 mps 758 mmHg 90%
    03:00 +27°C° 0 mm 4 mps 757 mmHg 90%
    04:00 +27°C° 0 mm 4 mps 757 mmHg 90%
    05:00 +27°C° 0 mm 4 mps 758 mmHg 91%
    06:00 +27°C° 0 mm 4 mps 758 mmHg 91%
    07:00 +28°C° 0 mm 4 mps 758 mmHg 84%
    08:00 +30°C° 0 mm 4 mps 759 mmHg 78%
    09:00 +32°C° 0 mm 4 mps 759 mmHg 71%
    10:00 +33°C° 0 mm 4 mps 758 mmHg 67%
    11:00 +35°C° 0 mm 3 mps 758 mmHg 62%
    12:00 +36°C° 0 mm 3 mps 758 mmHg 57%
    13:00 +36°C° 0.2 mm 3 mps 757 mmHg 57%
    14:00 +36°C° 0.2 mm 3 mps 756 mmHg 56%
    15:00 +36°C° 0.2 mm 4 mps 755 mmHg 56%
    16:00 +34°C° 0.7 mm 4 mps 755 mmHg 66%
    17:00 +32°C° 0.7 mm 4 mps 756 mmHg 76%
    18:00 +29°C° 0.7 mm 4 mps 756 mmHg 85%
    19:00 +29°C° 1.5 mm 4 mps 757 mmHg 87%
    20:00 +28°C° 1.5 mm 4 mps 757 mmHg 89%
    21:00 +28°C° 1.5 mm 4 mps 758 mmHg 91%
    22:00 +27°C° 0.6 mm 4 mps 758 mmHg 91%
    23:00 +27°C° 0.6 mm 3 mps 757 mmHg 91%

    23 September, Sunday

    Time Temperature Precipitation Wind Pressure Humidity
    00:00 +27°C° 0.6 mm 3 mps 757 mmHg 91%
    01:00 +27°C° 0.1 mm 3 mps 757 mmHg 91%
    02:00 +26°C° 0.1 mm 3 mps 757 mmHg 92%
    03:00 +26°C° 0.1 mm 3 mps 756 mmHg 92%
    04:00 +26°C° 0 mm 3 mps 757 mmHg 92%
    05:00 +26°C° 0 mm 3 mps 757 mmHg 92%
    06:00 +26°C° 0 mm 3 mps 757 mmHg 92%
    07:00 +27°C° 0 mm 3 mps 758 mmHg 84%
    08:00 +29°C° 0 mm 3 mps 758 mmHg 76%
    09:00 +31°C° 0 mm 3 mps 758 mmHg 68%
    10:00 +33°C° 0 mm 3 mps 758 mmHg 62%
    11:00 +35°C° 0 mm 2 mps 758 mmHg 55%
    12:00 +36°C° 0 mm 2 mps 757 mmHg 49%
    13:00 +36°C° 0 mm 2 mps 757 mmHg 48%
    14:00 +36°C° 0 mm 2 mps 756 mmHg 48%
    15:00 +36°C° 0 mm 2 mps 755 mmHg 48%
    16:00 +35°C° 0.5 mm 2 mps 756 mmHg 56%
    17:00 +33°C° 0.5 mm 3 mps 756 mmHg 64%
    18:00 +30°C° 0.5 mm 3 mps 756 mmHg 72%
    19:00 +29°C° 2.2 mm 3 mps 757 mmHg 77%
    20:00 +28°C° 2.2 mm 3 mps 757 mmHg 83%
    21:00 +27°C° 2.2 mm 3 mps 758 mmHg 88%
    22:00 +27°C° 1 mm 3 mps 758 mmHg 89%
    23:00 +26°C° 1 mm 3 mps 758 mmHg 89%

    24 September, Monday

    Time Temperature Precipitation Wind Pressure Humidity
    00:00 +26°C° 1 mm 2 mps 758 mmHg 89%
    01:00 +26°C° 0.3 mm 2 mps 758 mmHg 89%
    02:00 +25°C° 0.3 mm 2 mps 757 mmHg 89%
    03:00 +25°C° 0.3 mm 3 mps 757 mmHg 88%
    04:00 +25°C° 0 mm 3 mps 757 mmHg 89%
    05:00 +25°C° 0 mm 3 mps 758 mmHg 89%
    06:00 +25°C° 0 mm 3 mps 758 mmHg 90%
    07:00 +27°C° 0 mm 3 mps 758 mmHg 84%
    08:00 +28°C° 0 mm 3 mps 759 mmHg 77%
    09:00 +30°C° 0 mm 3 mps 759 mmHg 71%
    10:00 +33°C° 0 mm 3 mps 759 mmHg 64%
    11:00 +34°C° 0 mm 3 mps 758 mmHg 57%
    12:00 +36°C° 0 mm 2 mps 758 mmHg 51%
    13:00 +36°C° 0 mm 3 mps 757 mmHg 51%
    14:00 +36°C° 0 mm 3 mps 757 mmHg 51%
    15:00 +36°C° 0 mm 3 mps 756 mmHg 51%
    16:00 +34°C° 0.5 mm 3 mps 756 mmHg 58%
    17:00 +33°C° 0.5 mm 3 mps 757 mmHg 66%
    18:00 +30°C° 0.5 mm 3 mps 757 mmHg 74%
    19:00 +29°C° 1 mm 4 mps 758 mmHg 77%
    20:00 +29°C° 1 mm 4 mps 758 mmHg 79%
    21:00 +28°C° 1 mm 4 mps 759 mmHg 82%
    22:00 +28°C° 0.2 mm 4 mps 759 mmHg 85%
    23:00 +27°C° 0.2 mm 4 mps 759 mmHg 87%
    Show more